Home   Weather   Trois-Rivieres   Past weeks

Flag for Canada Past Weather in Trois-Rivieres, Quebec, Canada — Yesterday and Last 2 Weeks

Now
70 °F

Mild.


Feels Like: 71 °F
Forecast: N/A
Wind: 3 mph from Southeast

Location: Trois Rivieres

Current Time: Aug 31, 2016 at 7:45:48 PM

Latest Report: Aug 31, 2016 at 7:00 PM


Visibility: N/A

Pressure: 29.76 "Hg

Humidity: 80%

Dew Point: 64 °F

Location of Trois-RivieresLocation

Past Weather in Trois-Rivieres — Graph

°F

Trois-Rivieres Temperature Yesterday

Maximum temperature yesterday: 73 °F (at 5:00 PM)
Minimum temperature yesterday: 62 °F (at 6:00 AM)
Average temperature yesterday: 67 °F

High & Low Weather Summary for the Past Weeks

 TemperatureHumidityPressure
High82 °F (Aug 26, 3:00 PM)100% (Aug 25, 9:00 PM)30.23 "Hg (Aug 25, 9:00 PM)
Low58 °F (Aug 23, 6:00 AM)38% (Aug 26, 3:00 PM)29.66 "Hg (Aug 21, 4:00 PM)
Average70 °F76%29.95 "Hg
* Reported Aug 16 6:00 PM — Aug 31 6:00 PM, Trois-Rivieres, Weather by CustomWeather, © 2016

Note: Actual official high and low records may vary slightly from our data, if they occured in-between our weather recording intervals... More about our weather records

Advertising

Trois-Rivieres Weather History for the Previous 24 Hours

Scroll right to see more
 ConditionsComfort  
Time TempWeatherWind HumidityBarometerVisibility
6:00 PM
Wed, Aug 31
72 °FMild.9 mph81%29.76 "HgN/A
5:00 PM73 °FMild.2 mph84%29.75 "HgN/A
4:00 PM72 °FMild.1 mph80%29.76 "HgN/A
3:00 PM74 °FMild.3 mph76%29.78 "HgN/A
2:00 PM73 °FMild.14 mph83%29.78 "HgN/A
1:00 PM72 °FMild.15 mph86%29.80 "HgN/A
12:00 PM70 °FMild.12 mph88%29.82 "HgN/A
11:00 AM69 °FMild.10 mph91%29.83 "HgN/A
10:00 AM68 °FMild.9 mph93%29.85 "HgN/A
9:00 AM67 °FMild.2 mph89%29.84 "HgN/A
8:00 AM67 °FMild.5 mph89%29.85 "HgN/A
7:00 AM66 °FMild.3 mph93%29.85 "HgN/A
6:00 AM64 °FMild.7 mph100%29.85 "HgN/A
5:00 AM66 °FMild.8 mph93%29.84 "HgN/A
4:00 AM66 °FMild.7 mph92%29.85 "HgN/A
3:00 AM67 °FMild.8 mph91%29.87 "HgN/A
2:00 AM67 °FMild.6 mph90%29.87 "HgN/A
1:00 AM67 °FMild.8 mph89%29.88 "HgN/A
12:00 AM68 °FMild.7 mph88%29.88 "HgN/A
11:00 PM
Tue, Aug 30
69 °FMild.13 mph84%29.90 "HgN/A
10:00 PM70 °FMild.13 mph78%29.92 "HgN/A
9:00 PM70 °FMild.12 mph80%29.93 "HgN/A
8:00 PM71 °FMild.3 mph75%29.94 "HgN/A
7:00 PM72 °FMild.8 mph73%29.94 "HgN/A
Weather by CustomWeather, © 2016

See weather overviewHow to use our weather pages